Location: Vancouver
(49.2500°N, 123.1330°W)
Time: 12:17:10
(UTC-07:00)

ISS - All Passes

Search period start: 24 April 2014 00:00
Search period end: 04 May 2014 00:00
Orbit: 412 x 418 km, 51.6° (Epoch: 24 April)

Date Brightness Start Highest point End Pass type
(mag) Time Alt. Az. Time Alt. Az. Time Alt. Az.
24 Apr - 13:30:54 10° S 13:32:40 14° SE 13:34:28 10° ESE daylight
24 Apr - 15:05:34 10° SW 15:08:52 63° SSE 15:12:12 10° ENE daylight
24 Apr - 16:42:22 10° W 16:45:40 56° N 16:48:59 10° ENE daylight
24 Apr - 18:19:16 10° WNW 18:22:37 72° NNE 18:25:58 10° E daylight
24 Apr - 19:56:08 10° W 19:59:12 33° SSW 20:02:15 10° SSE daylight
25 Apr - 14:16:56 10° SW 14:20:06 43° SSE 14:23:18 10° ENE daylight
25 Apr - 15:53:27 10° W 15:56:46 64° N 16:00:06 10° ENE daylight
25 Apr - 17:30:24 10° WNW 17:33:44 60° N 17:37:03 10° E daylight
25 Apr - 19:07:11 10° WNW 19:10:26 49° SSW 19:13:41 10° SE daylight
25 Apr - 20:45:58 10° SW 20:46:31 10° SW 20:47:03 10° SW daylight
26 Apr - 13:28:22 10° SSW 13:31:18 29° SE 13:34:14 10° E daylight
26 Apr - 15:04:28 10° WSW 15:07:48 78° NNW 15:11:09 10° ENE daylight
26 Apr - 16:41:26 10° WNW 16:44:44 55° N 16:48:02 10° E daylight
26 Apr - 18:18:12 10° WNW 18:21:33 71° SSW 18:24:53 10° ESE daylight
26 Apr - 19:55:38 10° W 19:57:48 16° SW 19:59:58 10° S daylight
27 Apr - 12:40:00 10° S 12:42:27 19° SE 12:44:54 10° E daylight
27 Apr - 14:15:27 10° WSW 14:18:47 81° SSE 14:22:07 10° ENE daylight
27 Apr - 15:52:20 10° W 15:55:38 54° N 15:58:55 10° ENE daylight
27 Apr - 17:29:10 10° WNW 17:32:31 86° NNE 17:35:52 10° ESE daylight
27 Apr - 19:06:10 10° W 19:08:57 24° SW 19:11:43 10° SSE daylight
28 Apr - 11:52:05 10° SSE 11:53:34 12° SE 11:55:03 10° ESE daylight
28 Apr - 13:26:26 10° SW 13:29:42 58° SSE 13:32:59 10° ENE daylight
28 Apr - 15:03:09 10° W 15:06:27 57° N 15:09:45 10° ENE daylight
28 Apr - 16:40:02 10° WNW 16:43:22 68° NNE 16:46:42 10° E daylight
28 Apr - 18:16:51 10° W 18:19:58 36° SSW 18:23:03 10° SE daylight
29 Apr - 12:37:27 10° SW 12:40:35 39° SSE 12:43:43 10° ENE daylight
29 Apr - 14:13:52 10° W 14:17:11 66° NNW 14:20:31 10° ENE daylight
29 Apr - 15:50:48 10° WNW 15:54:07 59° N 15:57:25 10° E daylight
29 Apr - 17:27:33 10° WNW 17:30:50 54° SSW 17:34:05 10° SE daylight
29 Apr - 19:05:44 10° WSW 19:06:55 12° SW 19:08:06 10° SSW daylight
30 Apr - 11:48:35 10° SSW 11:51:25 26° SE 11:54:15 10° E daylight
30 Apr - 13:24:31 10° WSW 13:27:51 82° NNW 13:31:12 10° ENE daylight
30 Apr - 15:01:27 10° WNW 15:04:45 54° N 15:08:01 10° E daylight
30 Apr - 16:38:13 10° WNW 16:41:33 77° SSW 16:44:53 10° ESE daylight
30 Apr - 18:15:29 10° W 18:17:50 18° SW 18:20:10 10° S daylight
01 May - 10:59:57 10° S 11:02:13 17° SE 11:04:29 10° E daylight
01 May - 12:35:09 10° WSW 12:38:29 75° SSE 12:41:48 10° ENE daylight
01 May - 14:12:00 10° W 14:15:16 54° N 14:18:34 10° ENE daylight
01 May - 15:48:49 10° WNW 15:52:09 80° NNE 15:55:30 10° ESE daylight
01 May - 17:25:44 10° W 17:28:36 27° SW 17:31:28 10° SSE daylight
02 May - 10:12:04 10° SSE 10:12:59 11° SE 10:13:55 10° ESE daylight
02 May - 11:45:48 10° SW 11:49:02 52° SSE 11:52:18 10° ENE daylight
02 May - 13:22:26 10° W 13:25:44 59° N 13:29:02 10° ENE daylight
02 May - 14:59:19 10° WNW 15:02:38 65° NNE 15:05:57 10° E daylight
02 May - 16:36:05 10° WNW 16:39:14 40° SSW 16:42:23 10° SE daylight
03 May - 10:56:31 10° SW 10:59:34 35° SSE 11:02:38 10° E daylight
03 May - 12:32:47 10° W 12:36:06 70° NNW 12:39:26 10° ENE daylight
03 May - 14:09:43 10° WNW 14:13:00 57° N 14:16:17 10° E daylight
03 May - 15:46:26 10° WNW 15:49:44 60° SSW 15:53:00 10° SE daylight
03 May - 17:24:13 10° WSW 17:25:51 13° SW 17:27:29 10° SSW daylight
